Time,TemperatureF,DewpointF,PressureIn,WindDirection,WindDirectionDegrees,WindSpeedMPH,WindSpeedGustMPH,Humidity,HourlyPrecipIn,Conditions,Clouds,dailyrainin,SoftwareType,DateUTC
2013-05-21 00:01:00,66.8,63.8,29.99,ESE,117,3.0,3.0,90,0.00,,,0.00,Wunderground v.1.15,2013-05-21 04:01:00,
2013-05-21 00:06:00,66.8,63.5,30.00,ESE,117,0.0,3.0,89,0.00,,,0.00,Wunderground v.1.15,2013-05-21 04:06:00,
2013-05-21 00:11:00,66.9,63.6,30.00,ESE,117,0.0,1.0,89,0.00,,,0.00,Wunderground v.1.15,2013-05-21 04:11:00,
2013-05-21 00:16:00,66.8,63.5,30.00,ESE,117,0.0,2.0,89,0.00,,,0.00,Wunderground v.1.15,2013-05-21 04:16:00,
2013-05-21 00:21:00,66.8,63.5,30.00,ESE,117,0.0,0.0,89,0.00,,,0.00,Wunderground v.1.15,2013-05-21 04:21:00,
2013-05-21 00:26:00,66.6,63.3,30.00,ESE,117,0.0,2.0,89,0.00,,,0.00,Wunderground v.1.15,2013-05-21 04:26:00,
2013-05-21 00:31:00,66.4,63.4,30.00,ESE,117,0.0,0.0,90,0.00,,,0.00,Wunderground v.1.15,2013-05-21 04:31:00,
2013-05-21 00:36:00,66.3,63.3,30.00,ESE,117,3.0,3.0,90,0.00,,,0.00,Wunderground v.1.15,2013-05-21 04:36:00,
2013-05-21 00:41:00,66.3,63.3,30.00,ESE,117,2.0,3.0,90,0.00,,,0.00,Wunderground v.1.15,2013-05-21 04:41:00,
2013-05-21 00:46:00,66.3,63.3,30.00,ESE,118,2.0,4.0,90,0.00,,,0.00,Wunderground v.1.15,2013-05-21 04:46:00,
2013-05-21 00:51:00,66.3,63.6,30.00,ESE,117,0.0,1.0,91,0.00,,,0.00,Wunderground v.1.15,2013-05-21 04:51:00,
2013-05-21 00:56:00,66.4,63.4,30.00,ESE,117,0.0,3.0,90,0.00,,,0.00,Wunderground v.1.15,2013-05-21 04:56:00,
2013-05-21 01:01:00,66.4,63.4,30.00,ESE,117,2.0,3.0,90,0.00,,,0.00,Wunderground v.1.15,2013-05-21 05:01:00,
2013-05-21 01:06:00,66.4,63.4,30.00,ESE,117,0.0,3.0,90,0.00,,,0.00,Wunderground v.1.15,2013-05-21 05:06:00,
2013-05-21 01:11:00,66.4,63.4,30.00,ESE,117,0.0,2.0,90,0.00,,,0.00,Wunderground v.1.15,2013-05-21 05:11:00,
2013-05-21 01:16:00,66.3,63.6,30.00,ESE,117,0.0,4.0,91,0.00,,,0.00,Wunderground v.1.15,2013-05-21 05:16:00,
2013-05-21 01:21:00,66.3,63.6,29.99,ESE,117,0.0,1.0,91,0.00,,,0.00,Wunderground v.1.15,2013-05-21 05:21:00,
2013-05-21 01:26:00,66.3,63.6,29.99,ESE,117,0.0,2.0,91,0.00,,,0.00,Wunderground v.1.15,2013-05-21 05:26:00,
2013-05-21 01:31:00,66.3,63.6,29.99,ESE,117,0.0,0.0,91,0.00,,,0.00,Wunderground v.1.15,2013-05-21 05:31:00,
2013-05-21 01:36:00,66.1,63.4,29.99,ESE,117,0.0,1.0,91,0.00,,,0.00,Wunderground v.1.15,2013-05-21 05:36:00,
2013-05-21 01:41:00,66.3,63.9,29.99,ESE,117,0.0,0.0,92,0.00,,,0.00,Wunderground v.1.15,2013-05-21 05:41:00,
2013-05-21 01:46:00,66.3,63.6,29.99,ESE,117,0.0,1.0,91,0.00,,,0.00,Wunderground v.1.15,2013-05-21 05:46:00,
2013-05-21 01:51:00,66.1,63.7,29.98,ESE,117,0.0,0.0,92,0.00,,,0.00,Wunderground v.1.15,2013-05-21 05:51:00,
2013-05-21 01:56:00,66.1,63.7,29.98,ESE,117,0.0,1.0,92,0.00,,,0.00,Wunderground v.1.15,2013-05-21 05:56:00,
2013-05-21 02:01:00,66.1,63.7,29.98,ESE,117,0.0,0.0,92,0.00,,,0.00,Wunderground v.1.15,2013-05-21 06:01:00,
2013-05-21 02:06:00,66.0,63.6,29.98,ESE,118,0.0,1.0,92,0.00,,,0.00,Wunderground v.1.15,2013-05-21 06:06:00,
2013-05-21 02:11:00,65.6,63.5,29.98,ESE,117,0.0,3.0,93,0.00,,,0.00,Wunderground v.1.15,2013-05-21 06:11:00,
2013-05-21 02:16:00,65.5,63.4,29.98,ESE,117,0.0,3.0,93,0.00,,,0.00,Wunderground v.1.15,2013-05-21 06:16:00,
2013-05-21 02:21:00,65.5,63.7,29.98,ESE,117,1.0,1.0,94,0.00,,,0.00,Wunderground v.1.15,2013-05-21 06:21:00,
2013-05-21 02:26:00,65.6,63.5,29.98,ESE,117,0.0,1.0,93,0.00,,,0.00,Wunderground v.1.15,2013-05-21 06:26:00,
2013-05-21 02:31:00,65.6,63.2,29.98,ESE,117,0.0,2.0,92,0.00,,,0.00,Wunderground v.1.15,2013-05-21 06:31:00,
2013-05-21 02:36:00,65.8,63.4,29.98,ESE,117,0.0,2.0,92,0.00,,,0.00,Wunderground v.1.15,2013-05-21 06:36:00,
2013-05-21 02:41:00,65.6,63.2,29.98,ESE,117,0.0,1.0,92,0.00,,,0.00,Wunderground v.1.15,2013-05-21 06:41:00,
2013-05-21 02:46:00,65.5,63.1,29.98,ESE,117,0.0,1.0,92,0.00,,,0.00,Wunderground v.1.15,2013-05-21 06:46:00,
2013-05-21 02:51:00,65.3,63.2,29.98,ESE,117,0.0,0.0,93,0.00,,,0.00,Wunderground v.1.15,2013-05-21 06:51:00,
2013-05-21 02:56:00,65.3,63.2,29.98,ESE,117,0.0,3.0,93,0.00,,,0.00,Wunderground v.1.15,2013-05-21 06:56:00,
2013-05-21 03:01:00,65.3,63.2,29.98,ESE,117,0.0,1.0,93,0.00,,,0.00,Wunderground v.1.15,2013-05-21 07:01:00,
2013-05-21 03:06:00,65.3,63.2,29.98,ESE,117,0.0,3.0,93,0.00,,,0.00,Wunderground v.1.15,2013-05-21 07:06:00,
2013-05-21 03:11:00,65.5,63.4,29.98,ESE,117,0.0,0.0,93,0.00,,,0.00,Wunderground v.1.15,2013-05-21 07:11:00,
2013-05-21 03:16:00,65.6,63.5,29.98,ESE,117,0.0,1.0,93,0.00,,,0.00,Wunderground v.1.15,2013-05-21 07:16:00,
2013-05-21 03:21:00,65.6,63.2,29.98,ESE,117,0.0,1.0,92,0.00,,,0.00,Wunderground v.1.15,2013-05-21 07:21:00,
2013-05-21 03:26:00,65.3,63.2,29.98,ESE,117,0.0,1.0,93,0.00,,,0.00,Wunderground v.1.15,2013-05-21 07:26:00,
2013-05-21 03:31:00,65.5,63.4,29.98,ESE,117,2.0,2.0,93,0.00,,,0.00,Wunderground v.1.15,2013-05-21 07:31:00,
2013-05-21 03:36:00,65.3,63.2,29.97,ESE,117,0.0,3.0,93,0.00,,,0.00,Wunderground v.1.15,2013-05-21 07:36:00,
2013-05-21 03:41:00,65.3,63.2,29.97,ESE,117,0.0,1.0,93,0.00,,,0.00,Wunderground v.1.15,2013-05-21 07:41:00,
2013-05-21 03:46:00,65.3,63.2,29.97,ESE,117,0.0,1.0,93,0.00,,,0.00,Wunderground v.1.15,2013-05-21 07:46:00,
2013-05-21 03:51:00,65.2,63.1,29.97,ESE,117,0.0,1.0,93,0.00,,,0.00,Wunderground v.1.15,2013-05-21 07:51:00,
2013-05-21 03:56:00,65.2,63.1,29.97,ESE,117,0.0,1.0,93,0.00,,,0.00,Wunderground v.1.15,2013-05-21 07:56:00,
2013-05-21 04:01:00,65.3,63.2,29.97,ESE,117,0.0,1.0,93,0.00,,,0.00,Wunderground v.1.15,2013-05-21 08:01:00,
2013-05-21 04:06:00,65.6,63.5,29.96,ESE,117,0.0,1.0,93,0.00,,,0.00,Wunderground v.1.15,2013-05-21 08:06:00,
2013-05-21 04:11:00,65.6,63.2,29.96,ESE,117,0.0,1.0,92,0.00,,,0.00,Wunderground v.1.15,2013-05-21 08:11:00,
2013-05-21 04:16:00,65.6,63.2,29.96,ESE,117,0.0,1.0,92,0.00,,,0.00,Wunderground v.1.15,2013-05-21 08:16:00,
2013-05-21 04:21:00,65.3,63.2,29.97,ESE,117,0.0,1.0,93,0.00,,,0.00,Wunderground v.1.15,2013-05-21 08:21:00,
2013-05-21 04:26:00,65.3,63.2,29.97,ESE,117,0.0,1.0,93,0.00,,,0.00,Wunderground v.1.15,2013-05-21 08:26:00,
2013-05-21 04:31:00,65.2,63.1,29.97,ESE,117,0.0,1.0,93,0.00,,,0.00,Wunderground v.1.15,2013-05-21 08:31:00,
2013-05-21 04:36:00,65.0,63.2,29.97,ESE,117,1.0,1.0,94,0.00,,,0.00,Wunderground v.1.15,2013-05-21 08:36:00,
2013-05-21 04:41:00,65.2,63.4,29.97,ESE,117,0.0,1.0,94,0.00,,,0.00,Wunderground v.1.15,2013-05-21 08:41:00,
2013-05-21 04:46:00,65.2,63.4,29.97,ESE,117,0.0,3.0,94,0.00,,,0.00,Wunderground v.1.15,2013-05-21 08:46:00,
2013-05-21 04:51:00,65.0,63.2,29.97,ESE,117,0.0,1.0,94,0.00,,,0.00,Wunderground v.1.15,2013-05-21 08:51:00,
2013-05-21 04:56:00,65.0,63.2,29.97,ESE,117,0.0,1.0,94,0.00,,,0.00,Wunderground v.1.15,2013-05-21 08:56:00,
2013-05-21 05:01:00,65.0,63.2,29.97,ESE,117,0.0,1.0,94,0.00,,,0.00,Wunderground v.1.15,2013-05-21 09:01:00,
2013-05-21 05:06:00,65.0,63.2,29.96,ESE,117,0.0,1.0,94,0.00,,,0.00,Wunderground v.1.15,2013-05-21 09:06:00,
2013-05-21 05:11:00,64.8,63.3,29.96,ESE,117,0.0,1.0,95,0.00,,,0.00,Wunderground v.1.15,2013-05-21 09:11:00,
2013-05-21 05:16:00,64.8,63.3,29.96,ESE,117,0.0,1.0,95,0.00,,,0.00,Wunderground v.1.15,2013-05-21 09:16:00,
2013-05-21 05:21:00,64.8,63.3,29.97,ESE,117,0.0,0.0,95,0.00,,,0.00,Wunderground v.1.15,2013-05-21 09:21:00,
2013-05-21 05:26:00,64.8,63.3,29.97,ESE,117,0.0,1.0,95,0.00,,,0.00,Wunderground v.1.15,2013-05-21 09:26:00,
2013-05-21 05:31:00,65.0,63.5,29.97,ESE,117,0.0,1.0,95,0.00,,,0.00,Wunderground v.1.15,2013-05-21 09:31:00,
2013-05-21 05:36:00,64.8,63.3,29.97,ESE,117,0.0,1.0,95,0.00,,,0.00,Wunderground v.1.15,2013-05-21 09:36:00,
2013-05-21 05:41:00,64.8,63.3,29.97,ESE,117,0.0,0.0,95,0.00,,,0.00,Wunderground v.1.15,2013-05-21 09:41:00,
2013-05-21 05:46:00,64.8,63.3,29.97,ESE,117,0.0,1.0,95,0.00,,,0.00,Wunderground v.1.15,2013-05-21 09:46:00,
2013-05-21 05:51:00,65.0,63.5,29.98,ESE,117,1.0,1.0,95,0.00,,,0.00,Wunderground v.1.15,2013-05-21 09:51:00,
2013-05-21 05:56:00,65.0,63.5,29.98,ESE,117,0.0,1.0,95,0.00,,,0.00,Wunderground v.1.15,2013-05-21 09:56:00,
2013-05-21 06:01:00,65.2,63.4,29.98,ESE,117,0.0,1.0,94,0.00,,,0.00,Wunderground v.1.15,2013-05-21 10:01:00,
2013-05-21 06:06:00,65.5,63.4,29.98,ESE,117,0.0,1.0,93,0.00,,,0.00,Wunderground v.1.15,2013-05-21 10:06:00,
2013-05-21 06:11:00,65.6,63.2,29.98,ESE,117,0.0,1.0,92,0.00,,,0.00,Wunderground v.1.15,2013-05-21 10:11:00,
2013-05-21 06:17:00,66.0,63.6,29.98,ESE,117,0.0,1.0,92,0.00,,,0.00,Wunderground v.1.15,2013-05-21 10:17:00,
2013-05-21 06:22:00,66.0,63.3,29.99,ESE,117,1.0,1.0,91,0.00,,,0.00,Wunderground v.1.15,2013-05-21 10:22:00,
2013-05-21 06:27:00,66.1,63.4,29.99,ESE,117,0.0,1.0,91,0.00,,,0.00,Wunderground v.1.15,2013-05-21 10:27:00,
2013-05-21 06:32:00,66.1,63.4,29.99,ESE,117,0.0,1.0,91,0.00,,,0.00,Wunderground v.1.15,2013-05-21 10:32:00,
2013-05-21 06:37:00,66.1,63.4,29.99,ESE,117,0.0,1.0,91,0.00,,,0.00,Wunderground v.1.15,2013-05-21 10:37:00,
2013-05-21 06:42:00,66.1,63.4,29.99,ESE,117,0.0,0.0,91,0.00,,,0.00,Wunderground v.1.15,2013-05-21 10:42:00,
2013-05-21 06:47:00,66.1,63.4,29.99,ESE,117,0.0,0.0,91,0.00,,,0.00,Wunderground v.1.15,2013-05-21 10:47:00,
2013-05-21 06:52:00,66.1,63.4,30.00,ESE,117,0.0,1.0,91,0.00,,,0.00,Wunderground v.1.15,2013-05-21 10:52:00,
2013-05-21 06:57:00,66.0,63.3,30.00,ESE,117,0.0,1.0,91,0.00,,,0.00,Wunderground v.1.15,2013-05-21 10:57:00,
2013-05-21 07:02:00,65.8,63.1,30.00,ESE,117,0.0,1.0,91,0.00,,,0.00,Wunderground v.1.15,2013-05-21 11:02:00,
2013-05-21 07:07:00,65.6,62.9,29.99,ESE,117,0.0,1.0,91,0.00,,,0.00,Wunderground v.1.15,2013-05-21 11:07:00,
2013-05-21 07:12:00,65.6,63.2,29.99,ESE,117,0.0,1.0,92,0.00,,,0.00,Wunderground v.1.15,2013-05-21 11:12:00,
2013-05-21 07:17:00,65.6,63.2,29.99,ESE,117,0.0,1.0,92,0.00,,,0.00,Wunderground v.1.15,2013-05-21 11:17:00,
2013-05-21 07:22:00,65.5,63.1,30.00,ESE,117,0.0,0.0,92,0.00,,,0.00,Wunderground v.1.15,2013-05-21 11:22:00,
2013-05-21 07:27:00,65.6,63.2,30.00,ESE,117,0.0,0.0,92,0.00,,,0.00,Wunderground v.1.15,2013-05-21 11:27:00,
2013-05-21 07:32:00,65.8,63.4,30.00,ESE,117,0.0,0.0,92,0.00,,,0.00,Wunderground v.1.15,2013-05-21 11:32:00,
2013-05-21 07:37:00,66.0,63.6,30.01,ESE,117,0.0,0.0,92,0.00,,,0.00,Wunderground v.1.15,2013-05-21 11:37:00,
2013-05-21 07:42:00,66.0,63.6,30.01,ESE,117,0.0,0.0,92,0.00,,,0.00,Wunderground v.1.15,2013-05-21 11:42:00,
2013-05-21 07:47:00,66.1,63.7,30.01,ESE,118,0.0,0.0,92,0.00,,,0.00,Wunderground v.1.15,2013-05-21 11:47:00,
2013-05-21 07:52:00,66.1,63.7,30.01,ESE,117,0.0,0.0,92,0.00,,,0.00,Wunderground v.1.15,2013-05-21 11:52:00,
2013-05-21 07:57:00,66.1,63.7,30.01,ESE,117,0.0,0.0,92,0.00,,,0.00,Wunderground v.1.15,2013-05-21 11:57:00,
2013-05-21 08:02:00,66.3,63.6,30.01,ESE,117,0.0,0.0,91,0.00,,,0.00,Wunderground v.1.15,2013-05-21 12:02:00,
2013-05-21 08:07:00,66.4,63.7,30.01,ESE,117,0.0,0.0,91,0.00,,,0.00,Wunderground v.1.15,2013-05-21 12:07:00,
2013-05-21 08:12:00,66.9,64.2,30.01,ESE,117,0.0,0.0,91,0.00,,,0.00,Wunderground v.1.15,2013-05-21 12:12:00,
2013-05-21 08:17:00,67.6,64.9,30.01,ESE,118,0.0,0.0,91,0.00,,,0.00,Wunderground v.1.15,2013-05-21 12:17:00,
2013-05-21 08:22:00,68.1,64.7,30.01,ESE,117,0.0,0.0,89,0.00,,,0.00,Wunderground v.1.15,2013-05-21 12:22:00,
2013-05-21 08:27:00,68.6,64.9,30.01,ESE,118,0.0,0.0,88,0.00,,,0.00,Wunderground v.1.15,2013-05-21 12:27:00,
2013-05-21 08:32:00,68.9,65.2,30.01,ESE,118,0.0,0.0,88,0.00,,,0.00,Wunderground v.1.15,2013-05-21 12:32:00,
2013-05-21 08:37:00,69.4,65.7,30.01,ESE,117,0.0,1.0,88,0.00,,,0.00,Wunderground v.1.15,2013-05-21 12:37:00,
2013-05-21 08:42:00,70.4,66.0,30.01,ESE,118,0.0,0.0,86,0.00,,,0.00,Wunderground v.1.15,2013-05-21 12:42:00,
2013-05-21 08:47:00,70.8,66.4,30.01,ESE,117,0.0,0.0,86,0.00,,,0.00,Wunderground v.1.15,2013-05-21 12:47:00,
2013-05-21 08:52:00,70.8,65.4,30.01,ESE,117,0.0,0.0,83,0.00,,,0.00,Wunderground v.1.15,2013-05-21 12:52:00,
2013-05-21 08:57:00,70.9,66.2,30.01,ESE,118,0.0,0.0,85,0.00,,,0.00,Wunderground v.1.15,2013-05-21 12:57:00,
2013-05-21 09:02:00,71.3,66.2,30.01,ESE,117,0.0,0.0,84,0.00,,,0.00,Wunderground v.1.15,2013-05-21 13:02:00,
2013-05-21 09:07:00,71.6,66.2,30.00,ESE,117,0.0,0.0,83,0.00,,,0.00,Wunderground v.1.15,2013-05-21 13:07:00,
2013-05-21 09:12:00,71.8,66.4,30.00,ESE,117,0.0,0.0,83,0.00,,,0.00,Wunderground v.1.15,2013-05-21 13:12:00,
2013-05-21 09:17:00,71.8,66.4,30.00,ESE,118,0.0,0.0,83,0.00,,,0.00,Wunderground v.1.15,2013-05-21 13:17:00,
2013-05-21 09:22:00,71.5,66.1,30.00,ESE,117,0.0,0.0,83,0.00,,,0.00,Wunderground v.1.15,2013-05-21 13:22:00,
2013-05-21 09:27:00,71.3,65.9,30.00,ESE,117,0.0,0.0,83,0.00,,,0.00,Wunderground v.1.15,2013-05-21 13:27:00,
2013-05-21 09:32:00,71.3,66.2,30.00,ESE,117,0.0,1.0,84,0.00,,,0.00,Wunderground v.1.15,2013-05-21 13:32:00,
2013-05-21 09:37:00,71.3,65.9,30.01,ESE,117,0.0,1.0,83,0.00,,,0.00,Wunderground v.1.15,2013-05-21 13:37:00,
2013-05-21 09:42:00,71.3,65.5,30.01,ESE,117,1.0,1.0,82,0.00,,,0.00,Wunderground v.1.15,2013-05-21 13:42:00,
2013-05-21 09:47:00,71.8,66.0,30.01,ESE,117,0.0,1.0,82,0.00,,,0.00,Wunderground v.1.15,2013-05-21 13:47:00,
2013-05-21 09:52:00,72.5,66.7,30.01,ESE,117,1.0,1.0,82,0.00,,,0.00,Wunderground v.1.15,2013-05-21 13:52:00,
2013-05-21 09:57:00,73.2,67.4,30.01,ESE,117,0.0,1.0,82,0.00,,,0.00,Wunderground v.1.15,2013-05-21 13:57:00,
2013-05-21 10:02:00,73.5,67.3,30.01,ESE,117,0.0,0.0,81,0.00,,,0.00,Wunderground v.1.15,2013-05-21 14:02:00,
2013-05-21 10:07:00,73.9,67.7,30.01,ESE,117,0.0,1.0,81,0.00,,,0.00,Wunderground v.1.15,2013-05-21 14:07:00,
2013-05-21 10:12:00,74.0,67.8,30.01,ESE,117,0.0,0.0,81,0.00,,,0.00,Wunderground v.1.15,2013-05-21 14:12:00,
2013-05-21 10:17:00,74.2,67.6,30.01,ESE,117,0.0,1.0,80,0.00,,,0.00,Wunderground v.1.15,2013-05-21 14:17:00,
2013-05-21 10:22:00,73.9,68.1,30.00,ESE,118,0.0,0.0,82,0.00,,,0.00,Wunderground v.1.15,2013-05-21 14:22:00,
2013-05-21 10:27:00,73.9,68.1,30.00,ESE,117,0.0,1.0,82,0.00,,,0.00,Wunderground v.1.15,2013-05-21 14:27:00,
2013-05-21 10:32:00,73.9,68.1,30.00,ESE,117,0.0,1.0,82,0.00,,,0.00,Wunderground v.1.15,2013-05-21 14:32:00,
2013-05-21 10:37:00,74.0,67.8,30.00,ESE,117,0.0,1.0,81,0.00,,,0.00,Wunderground v.1.15,2013-05-21 14:37:00,
2013-05-21 10:42:00,73.9,67.3,30.00,East,86,0.0,0.0,80,0.00,,,0.00,Wunderground v.1.15,2013-05-21 14:42:00,
2013-05-21 10:47:00,74.0,68.2,30.00,East,94,0.0,0.0,82,0.00,,,0.00,Wunderground v.1.15,2013-05-21 14:47:00,
2013-05-21 10:52:00,74.6,68.7,29.99,SE,127,0.0,0.0,82,0.00,,,0.00,Wunderground v.1.15,2013-05-21 14:52:00,
2013-05-21 10:57:00,74.7,68.1,29.99,ESE,119,0.0,1.0,80,0.00,,,0.00,Wunderground v.1.15,2013-05-21 14:57:00,
2013-05-21 11:02:00,75.4,68.8,29.99,ESE,113,0.0,0.0,80,0.00,,,0.00,Wunderground v.1.15,2013-05-21 15:02:00,
2013-05-21 11:07:00,75.4,68.4,29.99,ESE,108,0.0,0.0,79,0.00,,,0.00,Wunderground v.1.15,2013-05-21 15:07:00,
2013-05-21 11:12:00,75.1,68.1,29.99,ESE,106,0.0,0.0,79,0.00,,,0.00,Wunderground v.1.15,2013-05-21 15:12:00,
2013-05-21 11:17:00,75.3,69.1,29.99,ESE,113,0.0,0.0,81,0.00,,,0.00,Wunderground v.1.15,2013-05-21 15:17:00,
2013-05-21 11:22:00,75.4,69.2,29.99,East,99,0.0,0.0,81,0.00,,,0.00,Wunderground v.1.15,2013-05-21 15:22:00,
2013-05-21 11:27:00,75.8,69.2,29.99,East,86,0.0,0.0,80,0.00,,,0.00,Wunderground v.1.15,2013-05-21 15:27:00,
2013-05-21 11:32:00,76.0,68.6,29.99,East,93,0.0,0.0,78,0.00,,,0.00,Wunderground v.1.15,2013-05-21 15:32:00,
2013-05-21 11:37:00,75.8,68.1,29.99,ESE,109,0.0,0.0,77,0.00,,,0.00,Wunderground v.1.15,2013-05-21 15:37:00,
2013-05-21 11:42:00,76.1,68.7,29.99,ESE,107,0.0,1.0,78,0.00,,,0.00,Wunderground v.1.15,2013-05-21 15:42:00,
2013-05-21 11:47:00,76.5,69.5,29.99,ESE,115,0.0,1.0,79,0.00,,,0.00,Wunderground v.1.15,2013-05-21 15:47:00,
2013-05-21 11:52:00,76.5,69.1,29.99,SE,139,0.0,0.0,78,0.00,,,0.00,Wunderground v.1.15,2013-05-21 15:52:00,
2013-05-21 11:57:00,76.3,68.6,29.99,East,95,0.0,1.0,77,0.00,,,0.00,Wunderground v.1.15,2013-05-21 15:57:00,
2013-05-21 12:02:00,76.5,68.7,29.99,East,86,0.0,0.0,77,0.00,,,0.00,Wunderground v.1.15,2013-05-21 16:02:00,
2013-05-21 12:07:00,76.3,68.6,29.98,East,88,0.0,0.0,77,0.00,,,0.00,Wunderground v.1.15,2013-05-21 16:07:00,
2013-05-21 12:12:00,76.5,69.1,29.98,ESE,103,0.0,0.0,78,0.00,,,0.00,Wunderground v.1.15,2013-05-21 16:12:00,
2013-05-21 12:17:00,76.3,68.6,29.98,East,96,0.0,0.0,77,0.00,,,0.00,Wunderground v.1.15,2013-05-21 16:17:00,
2013-05-21 12:22:00,77.2,70.2,29.98,East,97,0.0,0.0,79,0.00,,,0.00,Wunderground v.1.15,2013-05-21 16:22:00,
2013-05-21 12:27:00,77.9,69.7,29.98,East,92,0.0,0.0,76,0.00,,,0.00,Wunderground v.1.15,2013-05-21 16:27:00,
2013-05-21 12:32:00,78.5,70.3,29.98,SE,124,0.0,0.0,76,0.00,,,0.00,Wunderground v.1.15,2013-05-21 16:32:00,
2013-05-21 12:37:00,78.8,71.4,29.98,East,89,0.0,0.0,78,0.00,,,0.00,Wunderground v.1.15,2013-05-21 16:37:00,
2013-05-21 12:42:00,78.6,69.6,29.98,SE,136,0.0,0.0,74,0.00,,,0.00,Wunderground v.1.15,2013-05-21 16:42:00,
2013-05-21 12:47:00,78.8,69.8,29.98,ESE,118,0.0,0.0,74,0.00,,,0.00,Wunderground v.1.15,2013-05-21 16:47:00,
2013-05-21 12:52:00,79.0,70.4,29.98,SE,126,0.0,0.0,75,0.00,,,0.00,Wunderground v.1.15,2013-05-21 16:52:00,
2013-05-21 12:57:00,79.6,70.2,29.98,SE,127,0.0,0.0,73,0.00,,,0.00,Wunderground v.1.15,2013-05-21 16:57:00,
2013-05-21 13:02:00,79.6,70.2,29.98,East,96,0.0,0.0,73,0.00,,,0.00,Wunderground v.1.15,2013-05-21 17:02:00,
2013-05-21 13:07:00,79.9,70.1,29.97,ESE,112,0.0,0.0,72,0.00,,,0.00,Wunderground v.1.15,2013-05-21 17:07:00,
2013-05-21 13:12:00,80.3,70.4,29.97,SSE,149,0.0,0.0,72,0.00,,,0.00,Wunderground v.1.15,2013-05-21 17:12:00,
2013-05-21 13:17:00,80.5,70.2,29.97,ESE,108,0.0,0.0,71,0.00,,,0.00,Wunderground v.1.15,2013-05-21 17:17:00,
2013-05-21 13:22:00,80.7,69.6,29.95,ESE,110,0.0,0.0,69,0.00,,,0.00,Wunderground v.1.15,2013-05-21 17:22:00,
2013-05-21 13:27:00,81.1,68.7,29.95,ESE,118,0.0,0.0,66,0.00,,,0.00,Wunderground v.1.15,2013-05-21 17:27:00,
2013-05-21 13:32:00,80.9,68.5,29.95,East,94,0.0,0.0,66,0.00,,,0.00,Wunderground v.1.15,2013-05-21 17:32:00,
2013-05-21 13:37:00,81.2,69.6,29.95,East,96,0.0,0.0,68,0.00,,,0.00,Wunderground v.1.15,2013-05-21 17:37:00,
2013-05-21 13:42:00,81.4,69.4,29.95,East,97,0.0,0.0,67,0.00,,,0.00,Wunderground v.1.15,2013-05-21 17:42:00,
2013-05-21 13:47:00,81.8,69.3,29.95,East,98,0.0,0.0,66,0.00,,,0.00,Wunderground v.1.15,2013-05-21 17:47:00,
2013-05-21 13:52:00,81.8,68.9,29.95,East,101,0.0,0.0,65,0.00,,,0.00,Wunderground v.1.15,2013-05-21 17:52:00,
2013-05-21 13:57:00,81.6,68.7,29.95,SE,124,0.0,0.0,65,0.00,,,0.00,Wunderground v.1.15,2013-05-21 17:57:00,
2013-05-21 14:02:00,80.7,69.2,29.95,ESE,115,0.0,0.0,68,0.00,,,0.00,Wunderground v.1.15,2013-05-21 18:02:00,
2013-05-21 14:07:00,81.1,68.2,29.95,East,99,0.0,0.0,65,0.00,,,0.00,Wunderground v.1.15,2013-05-21 18:07:00,
2013-05-21 14:12:00,81.8,68.9,29.95,ESE,115,0.0,0.0,65,0.00,,,0.00,Wunderground v.1.15,2013-05-21 18:12:00,
2013-05-21 14:17:00,81.8,67.0,29.95,East,94,0.0,0.0,61,0.00,,,0.00,Wunderground v.1.15,2013-05-21 18:17:00,
2013-05-21 14:22:00,82.2,69.3,29.94,East,96,0.0,1.0,65,0.00,,,0.00,Wunderground v.1.15,2013-05-21 18:22:00,
2013-05-21 14:27:00,82.6,66.8,29.94,East,84,0.0,1.0,59,0.00,,,0.00,Wunderground v.1.15,2013-05-21 18:27:00,
2013-05-21 14:32:00,82.4,68.1,29.94,ESE,104,0.0,1.0,62,0.00,,,0.00,Wunderground v.1.15,2013-05-21 18:32:00,
2013-05-21 14:37:00,82.0,67.7,29.93,East,98,0.0,1.0,62,0.00,,,0.00,Wunderground v.1.15,2013-05-21 18:37:00,
2013-05-21 14:42:00,81.6,67.8,29.93,ESE,103,0.0,1.0,63,0.00,,,0.00,Wunderground v.1.15,2013-05-21 18:42:00,
2013-05-21 14:47:00,81.6,68.2,29.93,ESE,112,1.0,1.0,64,0.00,,,0.00,Wunderground v.1.15,2013-05-21 18:47:00,
2013-05-21 14:52:00,81.8,68.9,29.93,ESE,108,0.0,1.0,65,0.00,,,0.00,Wunderground v.1.15,2013-05-21 18:52:00,
2013-05-21 14:57:00,81.6,67.8,29.93,ESE,106,1.0,1.0,63,0.00,,,0.00,Wunderground v.1.15,2013-05-21 18:57:00,
2013-05-21 15:02:00,81.6,67.8,29.93,ESE,108,0.0,1.0,63,0.00,,,0.00,Wunderground v.1.15,2013-05-21 19:02:00,
2013-05-21 15:07:00,80.9,68.0,29.92,ESE,116,0.0,1.0,65,0.00,,,0.00,Wunderground v.1.15,2013-05-21 19:07:00,
2013-05-21 15:12:00,81.1,68.2,29.92,ESE,110,1.0,1.0,65,0.00,,,0.00,Wunderground v.1.15,2013-05-21 19:12:00,
2013-05-21 15:17:00,80.9,68.0,29.92,East,94,0.0,1.0,65,0.00,,,0.00,Wunderground v.1.15,2013-05-21 19:17:00,
2013-05-21 15:22:00,80.9,68.0,29.92,East,89,4.0,4.0,65,0.00,,,0.00,Wunderground v.1.15,2013-05-21 19:22:00,
2013-05-21 15:27:00,80.5,67.2,29.92,East,94,0.0,6.0,64,0.00,,,0.00,Wunderground v.1.15,2013-05-21 19:27:00,
2013-05-21 15:32:00,80.3,67.5,29.92,East,94,0.0,2.0,65,0.00,,,0.00,Wunderground v.1.15,2013-05-21 19:32:00,
2013-05-21 15:37:00,79.9,67.5,29.92,East,94,0.0,2.0,66,0.00,,,0.00,Wunderground v.1.15,2013-05-21 19:37:00,
2013-05-21 15:42:00,79.8,67.4,29.92,East,94,0.0,1.0,66,0.00,,,0.00,Wunderground v.1.15,2013-05-21 19:42:00,
2013-05-21 15:47:00,79.8,67.0,29.92,East,95,0.0,8.0,65,0.00,,,0.00,Wunderground v.1.15,2013-05-21 19:47:00,
2013-05-21 15:52:00,79.6,66.8,29.92,ESE,118,0.0,10.0,65,0.00,,,0.00,Wunderground v.1.15,2013-05-21 19:52:00,
2013-05-21 15:57:00,79.4,66.6,29.92,ESE,117,0.0,10.0,65,0.00,,,0.00,Wunderground v.1.15,2013-05-21 19:57:00,
2013-05-21 16:02:00,79.4,67.0,29.92,ESE,117,0.0,4.0,66,0.00,,,0.00,Wunderground v.1.15,2013-05-21 20:02:00,
2013-05-21 16:07:00,79.4,68.3,29.92,ESE,117,3.0,4.0,69,0.00,,,0.00,Wunderground v.1.15,2013-05-21 20:07:00,
2013-05-21 16:12:00,79.2,68.1,29.92,ESE,117,0.0,0.0,69,0.00,,,0.00,Wunderground v.1.15,2013-05-21 20:12:00,
2013-05-21 16:17:00,79.0,68.0,29.92,ESE,117,0.0,1.0,69,0.00,,,0.00,Wunderground v.1.15,2013-05-21 20:17:00,
2013-05-21 16:22:00,79.0,68.4,29.92,ESE,117,0.0,0.0,70,0.00,,,0.00,Wunderground v.1.15,2013-05-21 20:22:00,
2013-05-21 16:27:00,79.4,68.3,29.92,WNW,294,4.0,6.0,69,0.00,,,0.00,Wunderground v.1.15,2013-05-21 20:27:00,
2013-05-21 16:32:00,80.5,65.8,29.92,WNW,303,0.0,6.0,61,0.00,,,0.00,Wunderground v.1.15,2013-05-21 20:32:00,
2013-05-21 16:37:00,79.6,65.4,29.92,WNW,284,9.0,10.0,62,0.00,,,0.00,Wunderground v.1.15,2013-05-21 20:37:00,
2013-05-21 16:42:00,76.8,64.1,29.92,WNW,291,4.0,11.0,65,0.00,,,0.00,Wunderground v.1.15,2013-05-21 20:42:00,
2013-05-21 16:47:00,74.6,63.3,29.92,WNW,303,10.0,12.0,68,0.00,,,0.00,Wunderground v.1.15,2013-05-21 20:47:00,
2013-05-21 16:52:00,73.7,62.5,29.93,WNW,283,5.0,10.0,68,0.00,,,0.00,Wunderground v.1.15,2013-05-21 20:52:00,
2013-05-21 16:57:00,73.3,63.3,29.93,NW,306,3.0,10.0,71,0.00,,,0.00,Wunderground v.1.15,2013-05-21 20:57:00,
2013-05-21 17:02:00,73.2,64.4,29.93,NW,306,4.0,6.0,74,0.00,,,0.00,Wunderground v.1.15,2013-05-21 21:02:00,
2013-05-21 17:07:00,73.0,64.2,29.93,NW,306,2.0,6.0,74,0.00,,,0.00,Wunderground v.1.15,2013-05-21 21:07:00,
2013-05-21 17:12:00,73.7,64.5,29.93,WNW,300,0.0,5.0,73,0.00,,,0.00,Wunderground v.1.15,2013-05-21 21:12:00,
2013-05-21 17:17:00,74.2,64.6,29.93,WNW,300,1.0,5.0,72,0.00,,,0.00,Wunderground v.1.15,2013-05-21 21:17:00,
2013-05-21 17:22:00,74.7,64.7,29.92,WNW,300,0.0,5.0,71,0.00,,,0.00,Wunderground v.1.15,2013-05-21 21:22:00,
2013-05-21 17:27:00,73.9,64.3,29.92,East,79,6.0,11.0,72,0.00,,,0.00,Wunderground v.1.15,2013-05-21 21:27:00,
2013-05-21 17:32:00,72.1,64.5,29.92,East,99,0.0,5.0,77,0.00,,,0.00,Wunderground v.1.15,2013-05-21 21:32:00,
2013-05-21 17:37:00,72.3,65.1,29.92,East,99,1.0,5.0,78,0.00,,,0.00,Wunderground v.1.15,2013-05-21 21:37:00,
2013-05-21 17:42:00,72.8,65.9,29.92,East,99,0.0,2.0,79,0.00,,,0.00,Wunderground v.1.15,2013-05-21 21:42:00,
2013-05-21 17:47:00,73.0,65.0,29.92,East,99,0.0,5.0,76,0.00,,,0.00,Wunderground v.1.15,2013-05-21 21:47:00,
2013-05-21 17:52:00,73.0,65.0,29.92,East,99,0.0,1.0,76,0.00,,,0.00,Wunderground v.1.15,2013-05-21 21:52:00,
2013-05-21 17:57:00,73.5,65.8,29.92,East,99,3.0,5.0,77,0.00,,,0.00,Wunderground v.1.15,2013-05-21 21:57:00,
2013-05-21 18:02:00,74.2,64.6,29.92,East,99,0.0,4.0,72,0.00,,,0.00,Wunderground v.1.15,2013-05-21 22:02:00,
2013-05-21 18:07:00,74.6,65.0,29.91,East,99,0.0,4.0,72,0.00,,,0.00,Wunderground v.1.15,2013-05-21 22:07:00,
2013-05-21 18:12:00,75.3,65.2,29.91,East,99,0.0,1.0,71,0.00,,,0.00,Wunderground v.1.15,2013-05-21 22:12:00,
2013-05-21 18:17:00,76.0,65.1,29.91,East,99,0.0,3.0,69,0.00,,,0.00,Wunderground v.1.15,2013-05-21 22:17:00,
2013-05-21 18:22:00,76.3,64.5,29.89,East,99,0.0,1.0,67,0.00,,,0.00,Wunderground v.1.15,2013-05-21 22:22:00,
2013-05-21 18:27:00,76.7,65.3,29.89,East,99,0.0,1.0,68,0.00,,,0.00,Wunderground v.1.15,2013-05-21 22:27:00,
2013-05-21 18:32:00,75.6,65.9,29.89,East,99,3.0,5.0,72,0.00,,,0.00,Wunderground v.1.15,2013-05-21 22:32:00,
2013-05-21 18:37:00,73.5,65.8,29.88,ESE,113,0.0,7.0,77,0.00,,,0.00,Wunderground v.1.15,2013-05-21 22:37:00,
2013-05-21 18:42:00,72.8,65.5,29.88,ESE,113,0.0,2.0,78,0.00,,,0.00,Wunderground v.1.15,2013-05-21 22:42:00,
2013-05-21 18:47:00,72.3,65.8,29.88,ESE,113,0.0,2.0,80,0.00,,,0.00,Wunderground v.1.15,2013-05-21 22:47:00,
2013-05-21 18:52:00,72.0,65.8,29.88,ESE,113,2.0,2.0,81,0.00,,,0.00,Wunderground v.1.15,2013-05-21 22:52:00,
2013-05-21 18:57:00,71.8,66.0,29.88,ESE,113,0.0,3.0,82,0.00,,,0.00,Wunderground v.1.15,2013-05-21 22:57:00,
2013-05-21 19:02:00,71.5,65.4,29.88,ESE,113,0.0,1.0,81,0.00,,,0.00,Wunderground v.1.15,2013-05-21 23:02:00,
2013-05-21 19:07:00,71.3,65.5,29.89,ESE,113,1.0,1.0,82,0.00,,,0.00,Wunderground v.1.15,2013-05-21 23:07:00,
2013-05-21 19:12:00,70.6,64.5,29.89,ESE,108,0.0,3.0,81,0.00,,,0.00,Wunderground v.1.15,2013-05-21 23:12:00,
2013-05-21 19:17:00,70.3,64.5,29.89,ESE,108,0.0,3.0,82,0.00,,,0.00,Wunderground v.1.15,2013-05-21 23:17:00,
2013-05-21 19:22:00,69.9,64.5,29.89,ESE,108,0.0,1.0,83,0.00,,,0.00,Wunderground v.1.15,2013-05-21 23:22:00,
2013-05-21 19:27:00,69.4,63.3,29.89,ESE,106,2.0,5.0,81,0.00,,,0.00,Wunderground v.1.15,2013-05-21 23:27:00,
2013-05-21 19:32:00,69.1,63.7,29.89,ESE,106,0.0,1.0,83,0.00,,,0.00,Wunderground v.1.15,2013-05-21 23:32:00,
2013-05-21 19:37:00,68.9,63.9,29.89,ESE,106,0.0,1.0,84,0.00,,,0.00,Wunderground v.1.15,2013-05-21 23:37:00,
2013-05-21 19:42:00,68.8,63.8,29.89,ESE,106,0.0,0.0,84,0.00,,,0.00,Wunderground v.1.15,2013-05-21 23:42:00,
2013-05-21 19:47:00,68.8,63.8,29.89,ESE,106,0.0,1.0,84,0.00,,,0.00,Wunderground v.1.15,2013-05-21 23:47:00,
2013-05-21 19:52:00,68.4,63.7,29.89,ESE,106,0.0,0.0,85,0.00,,,0.00,Wunderground v.1.15,2013-05-21 23:52:00,
2013-05-21 19:57:00,68.3,63.9,29.89,ESE,106,0.0,4.0,86,0.00,,,0.00,Wunderground v.1.15,2013-05-21 23:57:00,
2013-05-21 20:02:00,68.1,63.8,29.89,ESE,106,0.0,1.0,86,0.00,,,0.00,Wunderground v.1.15,2013-05-22 00:02:00,
2013-05-21 20:07:00,67.8,64.1,29.90,ESE,106,0.0,1.0,88,0.00,,,0.00,Wunderground v.1.15,2013-05-22 00:07:00,
2013-05-21 20:12:00,67.4,64.0,29.90,ESE,106,4.0,4.0,89,0.00,,,0.00,Wunderground v.1.15,2013-05-22 00:12:00,
2013-05-21 20:17:00,67.3,64.3,29.90,ESE,106,0.0,4.0,90,0.00,,,0.00,Wunderground v.1.15,2013-05-22 00:17:00,
2013-05-21 20:22:00,67.3,64.3,29.91,ESE,106,0.0,1.0,90,0.00,,,0.00,Wunderground v.1.15,2013-05-22 00:22:00,
2013-05-21 20:27:00,67.1,64.4,29.91,ESE,106,0.0,1.0,91,0.00,,,0.00,Wunderground v.1.15,2013-05-22 00:27:00,
2013-05-21 20:32:00,67.1,64.4,29.91,ESE,106,0.0,0.0,91,0.00,,,0.00,Wunderground v.1.15,2013-05-22 00:32:00,
2013-05-21 20:37:00,66.9,64.2,29.90,ESE,106,0.0,0.0,91,0.00,,,0.00,Wunderground v.1.15,2013-05-22 00:37:00,
2013-05-21 20:42:00,66.6,63.6,29.90,ESE,105,0.0,4.0,90,0.00,,,0.00,Wunderground v.1.15,2013-05-22 00:42:00,
2013-05-21 20:47:00,66.6,63.6,29.90,ESE,105,0.0,4.0,90,0.00,,,0.00,Wunderground v.1.15,2013-05-22 00:47:00,
2013-05-21 20:52:00,66.4,63.7,29.91,ESE,105,0.0,1.0,91,0.00,,,0.00,Wunderground v.1.15,2013-05-22 00:52:00,
2013-05-21 20:57:00,66.4,64.0,29.91,ESE,105,0.0,1.0,92,0.00,,,0.00,Wunderground v.1.15,2013-05-22 00:57:00,
2013-05-21 21:02:00,66.4,64.0,29.91,ESE,105,0.0,0.0,92,0.00,,,0.00,Wunderground v.1.15,2013-05-22 01:02:00,
2013-05-21 21:07:00,66.1,63.7,29.92,ESE,105,0.0,1.0,92,0.00,,,0.00,Wunderground v.1.15,2013-05-22 01:07:00,
2013-05-21 21:13:00,66.1,64.0,29.92,ESE,105,0.0,1.0,93,0.00,,,0.00,Wunderground v.1.15,2013-05-22 01:13:00,
2013-05-21 21:17:00,66.0,63.9,29.92,ESE,105,0.0,1.0,93,0.00,,,0.00,Wunderground v.1.15,2013-05-22 01:17:00,
2013-05-21 21:22:00,66.0,64.2,29.92,ESE,105,0.0,0.0,94,0.00,,,0.00,Wunderground v.1.15,2013-05-22 01:22:00,
2013-05-21 21:28:00,66.0,64.2,29.92,ESE,105,0.0,0.0,94,0.00,,,0.00,Wunderground v.1.15,2013-05-22 01:28:00,
2013-05-21 21:33:00,65.8,64.0,29.92,ESE,105,0.0,1.0,94,0.00,,,0.00,Wunderground v.1.15,2013-05-22 01:33:00,
2013-05-21 21:38:00,65.6,63.8,29.92,ESE,105,0.0,1.0,94,0.00,,,0.00,Wunderground v.1.15,2013-05-22 01:38:00,
2013-05-21 21:43:00,65.6,63.8,29.92,ESE,105,0.0,0.0,94,0.00,,,0.00,Wunderground v.1.15,2013-05-22 01:43:00,
2013-05-21 21:48:00,65.5,63.7,29.92,ESE,105,0.0,0.0,94,0.00,,,0.00,Wunderground v.1.15,2013-05-22 01:48:00,
2013-05-21 21:53:00,65.3,63.2,29.93,ESE,105,0.0,1.0,93,0.00,,,0.00,Wunderground v.1.15,2013-05-22 01:53:00,
2013-05-21 21:58:00,65.3,63.2,29.93,ESE,105,0.0,1.0,93,0.00,,,0.00,Wunderground v.1.15,2013-05-22 01:58:00,
2013-05-21 22:03:00,65.2,63.1,29.93,ESE,105,0.0,1.0,93,0.00,,,0.00,Wunderground v.1.15,2013-05-22 02:03:00,
2013-05-21 22:08:00,65.2,63.1,29.93,ESE,105,0.0,1.0,93,0.00,,,0.00,Wunderground v.1.15,2013-05-22 02:08:00,
2013-05-21 22:13:00,65.0,62.6,29.93,ESE,105,2.0,3.0,92,0.00,,,0.00,Wunderground v.1.15,2013-05-22 02:13:00,
2013-05-21 22:18:00,64.8,62.4,29.93,ESE,105,0.0,3.0,92,0.00,,,0.00,Wunderground v.1.15,2013-05-22 02:18:00,
2013-05-21 22:23:00,64.8,62.4,29.93,ESE,105,3.0,3.0,92,0.00,,,0.00,Wunderground v.1.15,2013-05-22 02:23:00,
2013-05-21 22:28:00,64.7,62.3,29.93,ESE,105,0.0,3.0,92,0.00,,,0.00,Wunderground v.1.15,2013-05-22 02:28:00,
2013-05-21 22:33:00,64.7,62.3,29.93,ESE,105,0.0,1.0,92,0.00,,,0.00,Wunderground v.1.15,2013-05-22 02:33:00,
2013-05-21 22:38:00,64.5,62.1,29.93,ESE,105,0.0,1.0,92,0.00,,,0.00,Wunderground v.1.15,2013-05-22 02:38:00,
2013-05-21 22:43:00,64.5,61.8,29.93,ESE,105,0.0,3.0,91,0.00,,,0.00,Wunderground v.1.15,2013-05-22 02:43:00,
2013-05-21 22:48:00,64.7,62.0,29.93,ESE,105,0.0,3.0,91,0.00,,,0.00,Wunderground v.1.15,2013-05-22 02:48:00,
2013-05-21 22:53:00,64.7,62.0,29.93,ESE,105,0.0,1.0,91,0.00,,,0.00,Wunderground v.1.15,2013-05-22 02:53:00,
2013-05-21 22:58:00,64.7,62.0,29.93,ESE,105,0.0,1.0,91,0.00,,,0.00,Wunderground v.1.15,2013-05-22 02:58:00,
2013-05-21 23:03:00,64.7,62.0,29.93,ESE,105,0.0,1.0,91,0.00,,,0.00,Wunderground v.1.15,2013-05-22 03:03:00,
2013-05-21 23:08:00,64.7,62.0,29.93,ESE,105,0.0,1.0,91,0.00,,,0.00,Wunderground v.1.15,2013-05-22 03:08:00,
2013-05-21 23:13:00,64.8,62.4,29.93,ESE,105,0.0,0.0,92,0.00,,,0.00,Wunderground v.1.15,2013-05-22 03:13:00,
2013-05-21 23:18:00,65.6,62.9,29.93,ESE,105,0.0,1.0,91,0.00,,,0.00,Wunderground v.1.15,2013-05-22 03:18:00,
2013-05-21 23:23:00,66.3,62.6,29.94,ESE,105,2.0,4.0,88,0.00,,,0.00,Wunderground v.1.15,2013-05-22 03:23:00,
2013-05-21 23:28:00,66.3,62.3,29.94,ESE,105,3.0,4.0,87,0.00,,,0.00,Wunderground v.1.15,2013-05-22 03:28:00,
2013-05-21 23:33:00,66.1,61.8,29.94,ESE,105,0.0,2.0,86,0.00,,,0.00,Wunderground v.1.15,2013-05-22 03:33:00,
2013-05-21 23:38:00,66.0,62.0,29.94,ESE,105,0.0,2.0,87,0.00,,,0.00,Wunderground v.1.15,2013-05-22 03:38:00,
2013-05-21 23:43:00,65.8,62.1,29.94,ESE,105,0.0,0.0,88,0.00,,,0.00,Wunderground v.1.15,2013-05-22 03:43:00,
2013-05-21 23:48:00,65.6,61.9,29.94,ESE,105,0.0,0.0,88,0.00,,,0.00,Wunderground v.1.15,2013-05-22 03:48:00,
2013-05-21 23:53:00,65.5,62.2,29.93,ESE,105,0.0,1.0,89,0.00,,,0.00,Wunderground v.1.15,2013-05-22 03:53:00,
2013-05-21 23:58:00,65.2,62.5,29.93,ESE,105,2.0,3.0,91,0.00,,,0.00,Wunderground v.1.15,2013-05-22 03:58:00,